Regional Weather Roundup
Issued by NWS Albany, NY

Home | Current Version | Previous Version | Text Only | Print | Product List | Glossary On
Versions: 1 2 3 4 5 6 7 8 9 10 11 12 13 14 15 16 17 18 19 20 21 22 23 24 25 26 27 28
000
ASUS41 KALY 260810
RWRALY

NEW YORK STATE HOURLY WEATHER ROUNDUP
NATIONAL WEATHER SERVICE ALBANY NY
400 AM EDT TUE SEP 26 2017

NOTE: "FAIR" INDICATES FEW OR NO CLOUDS BELOW 12,000 FEET WITH NO
SIGNIFICANT WEATHER AND/OR NO OBSTRUCTIONS TO VISIBILITY.

NYZ032-033-038>043-046>054-057>066-NYZ062>081-082-084-260900-
EAST


CITY           SKY/WX    TMP DP  RH WIND       PRES   REMARKS
ALBANY         PTCLDY    68  66  93 CALM      30.04R
GLENS FALLS    FOG       62  61  96 CALM      30.03S VSB 1
POUGHKEEPSIE   CLOUDY    66  64  93 CALM      30.02F
NEWBURGH       CLEAR     68  66  94 CALM      30.05F
MONTGOMERY     CLOUDY    63  62  97 CALM      30.04S
WHITE PLAINS   MOCLDY    67  65  93 CALM      30.04F
ISLIP          CLOUDY    66  66 100 CALM      30.03F
NEW YORK CITY  CLOUDY    70  67  90 E5        30.03F
CENTRAL PARK   CLOUDY    70  65  84 NE3       30.06F
$$

NYZ005>009-017-018-044>046-055-056-260900-
CENTRAL


CITY           SKY/WX    TMP DP  RH WIND       PRES   REMARKS
FULTON         FOG       67  66  97 CALM      30.02R VSB 1/4
SYRACUSE       MOCLDY    64  64 100 CALM      30.01S
ROME           PTCLDY    66  65  96 SE3       30.04R
ELMIRA         CLEAR     64  63  96 CALM      30.05R FOG
BINGHAMTON     CLOUDY    67  64  90 CALM      30.07S
MONTICELLO     PTCLDY    64  64 100 CALM      30.10R FOG
$$

NYZ026>034-041>043-087-260900-
NORTH


CITY           SKY/WX    TMP DP  RH WIND       PRES   REMARKS
WATERTOWN      PTCLDY    62  62 100 CALM      30.01S FOG
FORT DRUM      NOT AVBL
OGDENSBURG       N/A     61  60  96 CALM      30.01S FOG
MASSENA        PTCLDY    62  62 100 CALM      30.02S FOG
SARANAC LAKE   MOCLDY    51  51 100 CALM      30.08R FOG
PLATTSBURGH    CLEAR     62  60  93 CALM      30.00S
$$

NYZ001>004-010>016-019>021-085-260900-
WEST


CITY           SKY/WX    TMP DP  RH WIND       PRES   REMARKS
NIAGARA FALLS  CLOUDY    70  66  87 CALM      30.00S FOG
BUFFALO        MOCLDY    70  65  84 S7        30.01S
DUNKIRK        CLOUDY    68  66  93 S3        30.01F
JAMESTOWN      CLOUDY    66  64  93 S3        30.08S
WELLSVILLE     PTCLDY    66  60  81 NE3       30.11S
ROCHESTER      MOCLDY    68  67  96 SW5       30.01S
PENN YAN       PTCLDY    67  64  90 SW5       30.04S FOG
$$

             KEY
       WCI = WIND CHILL INDEX
       VSB = VISIBILITY
       HX  = HEAT INDEX
$$




USA.gov is the U.S. government's official web portal to all federal, state and local government web resources and services.